Terug naar catalogus

STARLINK-5567

ActiefCommunicatieVLEO
NORAD 55377·PAYLOAD·🇺🇸 United States

Gelanceerd Jan 26, 2023 vanaf Cape Canaveral Space Force Station

Loading…

Volgende Passages (komende 24 uur)

TLE

VersSource: CelesTrak SupGP

Epoch: Sep 15, 2026, 02:16 UTC

1 55377C 23013AY  26258.09493056  .00022920  00000+0  83013-3 0  2585
2 55377  43.0032 328.6895 0001944 264.9538 231.3677 15.27566749    19

Volg STARLINK-5567 in realtime met AllMySat

Download on the App Store